Skip Navigation Links weather.gov 
NOAA logo-Select to go to the NOAA homepage NDBC Title GraphicClick to go to NDBC home page   Select to go to the NWS homepage
Home About Us Contact Us
 
 
    
    Station List

 Data Access
    Mobile Access
    Interactive Maps
         All Stations
         DART®
    Obs Search
    Ship Obs Report
    BuoyCAMs
    TAO
    DODS
    OceanSITES
    HF Radar
    OSMC
    Dial-A-Buoy
    RSS Feeds Image indicating link to RSS feed access page
    Web Widget
    Web Data Guide
    Maintenance Schedule
    Station Status Report

 Program Info
    TAO
    DART®
    IOOS®

 Publications
    NDBC PEA
    NDBC FONSI
    NDBC DQC Handbook

 Visitor Information
 
USA.gov is the U.S. government's official web portal to all federal, state and local government web resources and services.

Station DHXA2 - Deadhorse, AK Image indicating link to RSS feed of recent meteorological observations for station DHXA2

Owned and maintained by Marine Exchange of Alaska
C-MAN Station
70.222 N 148.419 W (70°13'20" N 148°25'9" W)

Site elevation: 15 m above mean sea level
Air temp height: 8 m above site elevation
Anemometer height: 8 m above site elevation
Barometer elevation: 23 m above mean sea level

Search And Rescue (SAR) Data

Meteorological Observations from Nearby Stations and Ships Image indicating link to RSS feed of recent meteorological observations near station DHXA2

Large icon indicates selected station.
yellow diamond Stations with recent data
red diamond Stations with no data in last 8 hours
     (24 hours for tsunami stations)


Conditions at DHXA2 as of
(1:33 pm AKST)
2233 GMT on 01/31/2023:
     

Click on the graph icon in the table below to see a time series plot of the last five days of that observation.

5-day plot - Wind Direction Wind Direction (WDIR): ENE ( 70 deg true )
5-day plot - Wind Speed Wind Speed (WSPD): 25 kts
5-day plot - Wind Gust Wind Gust (GST): 33 kts
5-day plot - Atmospheric Pressure Atmospheric Pressure (PRES): 30.06 in
5-day plot - Air Temperature Air Temperature (ATMP): -7.4 °F
5-day plot - Dew Point Dew Point (DEWP): -11.7 °F
5-day plot - Wind Chill Wind Chill (CHILL): -35.5 °F
5-day plot - Wind Speed at 10 Meters Wind Speed at 10 meters (WSPD10M): 25 kts
5-day plot - Wind Speed at 10 Meters Wind Speed at 20 meters (WSPD20M): 27 kts
5-day plot - Wind Speed, Wind Gust and Atmospheric Pressure Combined plot of Wind Speed, Gust, and Air Pressure
Previous observations
5-day plot - Wind Direction 5-day plot - Wind Speed 5-day plot - Wind Gust 5-day plot - Wave Height 5-day plot - Dominant Wave Period 5-day plot - Average Period 5-day plot - Mean Wave Direction 5-day plot - Atmospheric Pressure 5-day plot - Pressure Tendency 5-day plot - Air Temperature 5-day plot - Water Temperature 5-day plot - Dew Point 5-day plot - Salinity 5-day plot - Visibility 5-day plot - Tide (above MLLW)
MM DD TIME
(AKST)
WDIR WSPD
kts
GST
kts
WVHT
ft
DPD
sec
APD
sec
MWD PRES
in
PTDY
in
ATMP
°F
WTMP
°F
DEWP
°F
SAL
psu
VIS
nmi
TIDE
ft
0131 1:23 pmENE 26 33----30.06- -7.6--11.9---
0131 1:14 pmENE 28 36----30.05- -7.8--12.3---
0131 1:03 pmENE 28 37----30.05- -8.1--12.6---
013112:53 pmENE 25 33----30.06- -8.3--12.8---
013112:44 pmENE 25 33----30.05- -8.3--12.8---
013112:33 pm E 25 34----30.05- -8.5--13.0---
013112:23 pm E 26 33----30.06- -8.7--13.2---
013112:13 pmENE 25 34----30.06- -9.0--13.7---
013112:04 pmENE 26 35----30.05- -9.2--13.9---
013111:53 amENE 29 36----30.05- -9.4--14.1---
013111:43 amENE 27 35----30.05- -9.4--14.1---
013111:33 amENE 25 35----30.06- -9.6--14.3---
013111:23 amENE 25 32----30.06- -9.8--14.6---
013111:13 amENE 24 32----30.05- -9.8--14.6---
013111:04 amENE 27 36----30.04- -9.9--14.8---
013110:53 amENE 27 34----30.04- -9.9--14.8---
013110:44 amENE 27 35----30.05--10.1--15.0---
013110:34 amENE 25 35----30.05--10.3--15.2---
013110:23 amENE 26 35----30.05--10.5--15.3---
013110:13 amENE 27 37----30.05--10.7--15.7---
013110:03 amENE 25 34----30.06--10.7--15.7---
0131 9:53 amENE 25 33----30.06--10.8--15.9---
0131 9:43 amENE 23 32----30.05--11.0--16.1---
0131 9:33 amENE 23 32----30.06--11.0--16.1---
0131 9:24 amENE 24 32----30.06--11.0--16.1---
0131 9:13 amENE 25 34----30.06--11.0--16.1---
0131 9:03 amENE 27 34----30.06--11.2--16.2---
0131 8:53 amENE 27 35----30.06--11.2--16.2---
0131 8:43 amENE 27 36----30.06--11.4--16.4---
0131 8:33 amENE 26 36----30.06--11.4--16.6---
0131 8:23 amENE 26 33----30.06--11.4--16.6---
0131 8:13 amENE 25 34----30.06--11.4--16.6---
0131 8:03 amENE 26 37----30.06--11.2--16.4---
0131 7:53 amENE 27 37----30.05--11.0--16.1---
0131 7:43 amENE 29 38----30.05--11.0--16.1---
0131 7:33 amENE 27 37----30.05--11.0--16.1---
0131 7:23 amENE 30 46----30.05--11.2--16.2---
0131 7:13 amENE 27 36----30.06--11.2--16.2---
0131 7:03 amENE 27 38----30.06--11.2--16.2---
0131 6:53 amENE 27 36----30.06--11.2--16.2---
0131 6:43 amENE 27 37----30.06--11.2--16.2---
0131 6:33 amENE 28 37----30.06--10.8--15.9---
0131 6:23 amENE 30 42----30.05--11.0--16.1---
0131 6:13 amENE 28 37----30.06--11.2--16.2---
0131 6:03 amENE 29 39----30.06--11.2--16.2---
0131 5:53 amENE 26 35----30.06--11.4--16.6---
0131 5:43 amENE 27 35----30.06--11.4--16.6---
0131 5:33 amENE 25 34----30.06--11.4--16.6---
0131 5:23 amENE 27 39----30.06--11.4--16.6---
0131 5:13 amENE 28 37----30.06--11.2--16.2---
0131 5:03 amENE 29 37----30.06--11.2--16.4---
0131 4:54 amENE 26 35----30.06--11.2--16.4---
0131 4:43 amENE 27 36----30.06--11.4--16.6---
0131 4:33 amENE 26 34----30.07--11.4--16.6---
0131 4:23 amENE 24 35----30.07--11.4--16.6---
0131 4:13 amENE 24 31----30.08--11.2--16.2---
0131 4:03 amENE 25 33----30.08--11.2--16.2---
0131 3:53 amENE 25 35----30.08--11.2--16.2---
0131 3:43 amENE 24 32----30.09--11.2--16.2---
0131 3:34 amENE 24 33----30.09--11.2--16.2---
0131 3:23 amENE 25 33----30.09--11.0--16.1---
0131 3:13 amENE 25 35----30.09--10.8--15.9---
0131 3:03 amENE 27 36----30.09--10.8--15.9---
0131 2:53 amENE 25 36----30.09--10.8--15.9---
0131 2:43 amENE 25 33----30.09--10.7--15.7---
0131 2:33 amENE 25 35----30.09--10.7--15.7---
0131 2:23 amENE 24 32----30.09--10.5--15.5---
0131 2:13 amENE 27 36----30.09--10.3--15.3---
0131 2:03 amENE 25 35----30.10--10.5--15.5---
0131 1:53 amENE 28 35----30.09--10.7--15.7---
0131 1:43 amENE 29 35----30.09--10.8--15.9---
0131 1:33 amENE 26 34----30.09--11.0--16.1---
0131 1:23 amENE 28 36----30.09--11.0--16.1---
0131 1:13 amENE 26 36----30.09--11.0--16.1---
0131 1:03 amENE 26 34----30.09--10.8--15.9---
013112:53 amENE 29 38----30.09--10.7--15.7---
013112:43 amENE 26 34----30.09--10.7--15.7---
013112:33 amENE 28 39----30.09--10.7--15.7---
013112:23 amENE 27 39----30.09--10.8--15.9---
013112:13 amENE 26 36----30.09--10.8--15.9---
013112:04 amENE 25 34----30.09--10.7--15.7---
013011:53 pmENE 26 36----30.09--10.5--15.5---
013011:44 pmENE 26 35----30.09--10.1--15.2---
013011:33 pmENE 28 35----30.09--10.1--15.0---
013011:23 pmENE 26 34----30.09--10.1--15.0---
013011:14 pmENE 26 34----30.09- -9.9--14.8---
013011:04 pmENE 25 32----30.09--10.1--15.0---
013010:54 pmENE 23 32----30.10--10.1--15.0---
013010:43 pm E 22 32----30.10--10.1--15.2---
013010:33 pm E 26 36----30.10--10.3--15.3---
013010:23 pmENE 21 29----30.11--10.7--15.7---
013010:13 pm E 24 31----30.10--10.7--15.7---
013010:03 pm E 23 32----30.10--10.7--15.7---
0130 9:53 pm E 24 30----30.10--10.7--15.7---
0130 9:43 pm E 22 27----30.11--10.8--16.1---
0130 9:33 pm E 22 27----30.11--11.2--16.4---
0130 9:23 pm E 23 29----30.11--11.2--16.4---
0130 9:13 pm E 23 31----30.11--11.4--16.6---
0130 9:03 pm E 22 31----30.11--11.6--16.8---
0130 8:53 pmENE 20 27----30.12--11.6--16.8---
0130 8:43 pmENE 20 27----30.12--11.6--16.8---
0130 8:33 pmENE 24 30----30.11--11.4--16.6---
0130 8:24 pmENE 25 32----30.11--11.2--16.4---
0130 8:13 pmENE 25 31----30.11--11.0--16.2---
0130 8:03 pmENE 22 31----30.11--11.2--16.4---
0130 7:54 pmENE 22 29----30.11--11.2--16.4---
0130 7:43 pmENE 23 28----30.11--11.4--16.6---
0130 7:33 pmENE 23 28----30.11--11.6--16.8---
0130 7:24 pmENE 21 30----30.11--11.7--17.0---
0130 7:13 pmENE 23 29----30.11--11.7--17.1---
0130 7:03 pmENE 22 32----30.11--11.9--17.3---
0130 6:54 pmENE 24 36----30.11--12.3--17.7---
0130 6:43 pmENE 24 33----30.11--12.3--17.7---
0130 6:33 pmENE 23 36----30.11--12.5--17.9---
0130 6:23 pmENE 21 29----30.11--12.6--18.0---
0130 6:13 pmENE 23 28----30.11--12.6--18.0---
0130 6:03 pmENE 22 30----30.11--12.6--18.0---
0130 5:54 pmENE 23 36----30.11--12.6--18.0---
0130 5:43 pmENE 22 28----30.12--12.6--18.0---
0130 5:33 pmENE 22 28----30.11--12.6--18.0---
0130 5:23 pmENE 21 26----30.12--12.6--18.0---
0130 5:13 pmENE 21 27----30.12--12.6--18.0---
0130 5:04 pmENE 20 25----30.12--12.8--18.4---
0130 4:53 pmENE 20 28----30.11--12.8--18.4---
0130 4:44 pmENE 22 26----30.11--12.6--18.0---
0130 4:34 pmENE 20 28----30.11--12.3--17.7---
0130 4:23 pm E 21 29----30.11--12.5--17.9---
0130 4:14 pmENE 20 27----30.12--12.5--17.9---
0130 4:04 pmENE 19 26----30.12--12.5--17.9---
0130 3:53 pm E 20 28----30.12--12.5--17.9---
0130 3:43 pmENE 19 24----30.12--12.6--18.0---
0130 3:34 pmENE 21 30----30.12--12.3--17.7---
0130 3:23 pmENE 20 28----30.12--12.6--18.0---
0130 3:13 pmENE 23 34----30.12--12.6--18.0---
0130 2:53 pmENE 23 35----30.12--12.6--18.0---
0130 2:43 pmENE 28 37----30.12--12.6--18.0---
0130 2:34 pmENE 24 32----30.13--12.6--18.0---
0130 2:23 pmENE 24 31----30.13--12.5--18.0---
0130 2:13 pmENE 24 35----30.13--12.5--18.0---
0130 2:03 pmENE 22 27----30.13--12.5--17.9---
0130 1:53 pmENE 23 35----30.14--12.3--17.7---
0130 1:43 pmENE 22 33----30.14--12.1--17.5---
0130 1:34 pmENE 22 29----30.14--12.1--17.5---
0130 1:24 pmENE 21 29----30.14--12.1--17.5---
0130 1:13 pmENE 20 27----30.14--12.3--17.7---
0130 1:03 pmENE 20 29----30.15--12.5--17.9---
013012:53 pmENE 21 27----30.15--12.6--18.0---

Description of Measurements

Links which are specific to this station are listed below:

Real Time Data in tabular form for the last forty-five days.

Historical Data & Climatic Summaries for quality controlled data for the current month, previous months, and previous years.